Back to catalog

ECHOSTAR 7

AliveCommunicationsGEO
NORAD 27378·PAYLOAD·🇺🇸 United States

Launched Feb 21, 2002 from Cape Canaveral Space Force Station

Loading…

TLE

FreshSource: Space-Track

Epoch: Sep 14, 2026, 13:15 UTC

1 27378U 02006A   26257.55238694  .00000103  00000-0  00000-0 0  9993
2 27378   4.2383  76.2485 0002130 111.7193 209.1239  0.99843096 51426

Track ECHOSTAR 7 in real time with AllMySat

Download on the App Store